date,batt_volt,AirTemp_C,Solar_kW,RH,Manual_BP,StationID,WS_ms,PTemp,WS_15min_max,Prog_Sig,Solar_Raw,Bar_mbar,Solar_MJ,Max_WS_2min,Pressure_Raw,Rain_mm,WD_15min_ave,Max_AirTemp_1min,WindDir,WS_15min_med,WS_15min_ave,Elevation_Correction
2023-09-01T00:05:53Z,13.31633,10.71753,0.0,100.079,0,1156,0.0392,12.16358,0.0392,43690,0.0,1013.692,0.0,0.039,1011.892,0,100.169567369,10.89,104.827,0.0392,0.0392,1.80078
2023-09-01T00:20:53Z,13.33102,10.69462,0.0,100.1346,0,1156,0.0392,11.6801,0.0392,43690,0.0,1013.692,0.0,0.039,1011.892,0,100.614453422,10.8,98.39739,0.0392,0.0392,1.80078
2023-09-01T00:35:54Z,13.34224,10.59341,0.0,100.1017,0,1156,0.0392,11.26666,0.0392,43690,0.0,1013.692,0.0,0.039,1011.892,0,101.659970139,10.66,95.7019,0.0392,0.0392,1.80078
2023-09-01T00:50:55Z,13.34777,10.15258,0.0,100.1017,0,1156,0.0392,10.92551,0.0392,43690,0.0,1013.692,0.0,0.039,1011.892,0,102.684225232,10.25,111.4235,0.0392,0.0392,1.80078
2023-09-01T01:05:56Z,13.35329,9.915218,0.0,100.1017,0,1156,0.0392,10.60696,0.0392,43690,0.0,1014.68,0.0,0.039,1012.879,0,104.602866195,10.15,104.5378,0.0392,0.0392,1.80078
2023-09-01T01:20:57Z,13.35982,9.780861,0.0,100.1043,0,1156,0.0392,10.33585,0.0392,43690,0.0,1014.68,0.0,0.039,1012.879,0,104.431202324,9.849999,96.23406,0.0392,0.0392,1.80078
2023-09-01T01:35:58Z,13.36647,9.618118,0.0,100.0502,0,1156,0.0392,10.10992,0.0392,43690,0.0,1014.68,0.0,0.039,1012.879,0,101.169209875,9.719999,102.8211,0.0392,0.0392,1.80078
2023-09-01T01:50:59Z,13.37212,9.550614,0.0,100.0848,0,1156,0.0392,9.92918,0.0392,43690,0.0,1014.68,0.0,0.039,1012.879,0,99.6995751897,9.689999,98.7763,0.0392,0.0392,1.80078
2023-09-01T02:06:00Z,13.37824,9.384041,0.0,100.1248,0,1156,0.0392,9.771038,0.0392,43690,0.0,1015.285,0.0,0.039,1013.484,0,101.374738739,9.42,101.046,0.0392,0.0392,1.80078
2023-09-01T02:21:00Z,13.37984,9.253285,0.0,100.1009,0,1156,0.0392,9.615146,0.0392,43690,0.0,1015.285,0.0,0.039,1013.484,0,99.3471534737,9.32,94.16807,0.0392,0.0392,1.80078
2023-09-01T02:36:00Z,13.37992,9.117927,0.0,100.1015,0,1156,0.0392,9.479595,0.0392,43690,0.0,1015.285,0.0,0.039,1013.484,0,92.2784188376,9.22,104.8138,0.0392,0.0392,1.80078
2023-09-01T02:51:00Z,13.38544,9.084118,0.0,100.1357,0,1156,0.0392,9.323704,0.0392,43690,0.0,1015.285,0.0,0.039,1013.484,0,97.9672930794,9.22,80.00745,0.0392,0.0392,1.80078
2023-09-01T03:06:00Z,13.39097,9.321567,0.0,100.1357,0,1156,0.0392,9.213002,0.0392,43690,0.0,1015.831,0.0,0.039,1014.03,0,76.4705602125,9.42,58.98201,0.0392,0.0392,1.80078
2023-09-01T03:20:59Z,13.39097,10.37313,0.0,100.1018,0,1156,0.0392,9.122631,0.0392,43690,0.0,1015.831,0.0,0.039,1014.03,0,78.84560303,10.31,48.33683,0.0392,0.0392,1.80078
2023-09-01T03:35:59Z,13.39097,10.44097,0.0,100.1018,0,1156,0.0392,9.122631,0.0392,43690,0.0,1015.831,0.0,0.039,1014.03,0,57.6149655265,10.51,47.73472,0.0392,0.0392,1.80078
2023-09-01T03:50:58Z,13.39097,10.13568,0.0,100.1018,0,1156,0.0392,9.122631,0.0392,43690,0.0,1015.831,0.0,0.039,1014.03,0,71.7241015146,10.27,71.289,0.0392,0.0392,1.80078
2023-09-01T04:06:02Z,13.39097,10.1696,0.0,100.0678,0,1156,0.0392,9.100041,0.0392,43690,0.0,1016.808,0.0,0.039,1015.007,0,65.3697507904,10.2,65.74965,0.0392,0.0392,1.80078
2023-09-01T04:21:00Z,13.39097,10.06784,0.0,100.1357,0,1156,0.0392,9.05711,0.0392,43690,0.0,1016.808,0.0,0.039,1015.007,0,75.6440073771,10.03,69.3141,0.0392,0.0392,1.80078
2023-09-01T04:35:59Z,13.39649,9.932152,0.0,100.1357,0,1156,0.0392,9.011929,0.0392,43690,0.0,1016.808,0.0,0.039,1015.007,0,58.3064971456,10.03,45.22998,0.0392,0.0392,1.80078
2023-09-01T04:50:58Z,13.39649,10.57666,0.0,100.1018,0,1156,0.0392,8.98933,0.0392,43690,0.0,1016.808,0.0,0.039,1015.007,0,29.6712245119,10.54,46.31377,0.0392,0.0392,1.80078
2023-09-01T05:06:03Z,13.39097,10.33921,0.0,100.1018,0,1156,0.0392,9.079701,0.0392,43690,0.0,1016.645,0.0,0.039,1014.844,0,24.6336986664,10.54,68.27848,0.0392,0.0392,1.80078
2023-09-01T05:21:01Z,13.39097,9.762542,0.0,100.1357,0,1156,0.0392,9.05711,0.0392,43690,0.0,1016.645,0.0,0.039,1014.844,0,62.5112881107,9.9,84.19809,0.0392,0.0392,1.80078
2023-09-01T05:36:00Z,13.39649,9.932152,0.0,100.0678,0,1156,0.0392,8.98933,0.0392,43690,0.0,1016.645,0.0,0.039,1014.844,0,73.6543286703,9.929999,96.33649,0.0392,0.0392,1.80078
2023-09-01T05:50:59Z,13.39649,9.932152,0.0,100.1018,0,1156,0.0392,8.878628,0.0392,43690,0.0,1016.645,0.0,0.039,1014.844,0,88.2142194082,9.9,224.8012,0.0392,0.0392,1.80078
2023-09-01T06:05:59Z,13.40201,9.457253,0.0,100.1018,0,1156,0.0392,8.657222,0.0392,43690,0.0,1016.97,0.0,0.039,1015.17,0,163.789990328,9.59,84.22217,0.0392,0.0392,1.80078
2023-09-01T06:20:59Z,13.40754,9.491173,0.0,100.0678,0,1156,0.0392,8.478741,0.0392,43690,0.0,1016.97,0.0,0.039,1015.17,0,73.0479239168,9.63,53.00915,0.0392,0.0392,1.80078
2023-09-01T06:36:00Z,13.40201,9.898228,0.0,100.1357,0,1156,0.0392,8.435818,0.0392,43690,0.0,1016.97,0.0,0.039,1015.17,0,52.6213977815,10.07,33.83819,0.0392,0.0392,1.80078
2023-09-01T06:50:59Z,13.40754,9.253723,0.0,100.1018,0,1156,0.0392,8.435818,0.0392,43690,0.0,1016.97,0.0,0.039,1015.17,0,76.2312973329,9.32,98.04646,0.0392,0.0392,1.80078
2023-09-01T07:06:00Z,13.40754,8.914513,0.0,100.1018,0,1156,0.0392,8.368038,0.0392,43690,0.0,1018.029,0.0,0.039,1016.228,0,91.5517535022,9.019999,86.19706,0.0392,0.0392,1.80078
2023-09-01T07:21:00Z,13.41306,8.575298,0.0,100.1018,0,1156,0.0392,8.169224,0.0392,43690,0.0,1018.029,0.0,0.039,1016.228,0,165.146317908,8.74,257.8687,0.0392,0.0392,1.80078
2023-09-01T07:36:00Z,13.42411,8.032833,0.0,100.0684,0,1156,0.0392,7.993008,0.0392,43690,0.0,1018.029,0.0,0.039,1016.228,0,68.6771369681,8.13,99.85334,0.0392,0.0388541176471,1.80078
2023-09-01T07:51:00Z,13.42415,7.966721,0.0,100.1059,0,1156,0.0392,7.861965,0.0392,43690,0.0,1018.029,0.0,0.039,1016.228,0,77.9037319434,8.2,59.68295,0.0392,0.0392,1.80078
2023-09-01T08:06:01Z,13.42415,8.815846,0.0,100.1081,0,1156,0.0392,7.728672,0.0392,43690,0.0,1017.986,0.0,0.039,1016.186,0,81.0529091034,8.75,88.80379,0.0392,0.0392,1.80078
2023-09-01T08:21:02Z,13.42479,9.935505,0.0,100.1085,0,1156,0.0392,7.728672,0.0392,43690,0.0,1017.986,0.0,0.039,1016.186,0,85.8124248415,9.939999,111.4447,0.0392,0.0392,1.80078
2023-09-01T08:36:01Z,13.42457,9.594761,0.0,100.1054,0,1156,0.0392,7.816784,0.0392,43690,0.0,1017.986,0.0,0.039,1016.186,0,92.1706980989,9.63,26.92704,0.0392,0.0392,1.80078
2023-09-01T08:51:01Z,13.42455,8.169746,0.0,100.1049,0,1156,0.0392,7.728672,0.0392,43690,0.0,1017.986,0.0,0.039,1016.186,0,221.445866225,8.269999,92.63041,0.0392,0.0392,1.80078
2023-09-01T09:06:06Z,13.42476,9.764462,0.0,100.1056,0,1156,0.0392,7.685749,0.0392,43690,0.0,1018.704,0.0,0.039,1016.903,0,88.3992003498,9.83,105.2517,0.0392,0.0392,1.80078
2023-09-01T09:21:05Z,13.42437,9.154454,0.0004826782,100.1068,0,1156,0.0392,7.685749,0.0392,43690,0.03378747,1018.704,2.413391e-06,0.039,1016.903,0,89.7793654251,9.26,82.25145,0.0392,0.0392,1.80078
2023-09-01T09:36:04Z,13.4248,10.03645,0.004826782,100.1407,0,1156,0.0392,7.706082,0.0392,43690,0.3378747,1018.704,2.413391e-05,0.039,1016.903,0,79.1425374034,10.14,103.4465,0.0392,0.0392,1.80078
2023-09-01T09:51:03Z,13.42513,10.07048,0.01206695,100.107,0,1156,0.0392,7.839374,0.0392,43690,0.8446867,1018.704,6.033476e-05,0.039,1016.903,0,96.1209157663,10.21,98.14798,0.0392,0.0392,1.80078
2023-09-01T10:06:08Z,13.41381,10.10215,0.03137408,100.0347,0,1156,0.0392,7.993008,0.0392,43690,2.196186,1019.591,0.0001568704,0.039,1017.79,0,92.7502400352,10.17,87.18519,0.0392,0.0392,1.80078
2023-09-01T10:21:07Z,13.40213,10.54278,0.0265473,100.1018,0,1156,0.0392,8.257336,0.0392,43690,1.858311,1019.591,0.0001327365,0.039,1017.79,0,81.9326158382,10.61,53.37046,0.0392,0.0392,1.80078
2023-09-01T10:36:06Z,13.3965,10.74628,0.1327365,100.1018,0,1156,0.0392,8.612042,0.0392,43690,9.291554,1019.591,0.0006636824,0.039,1017.79,0,82.9458669,10.78,88.65369,0.0392,0.0392,1.80078
2023-09-01T10:51:05Z,13.39097,11.52647,0.1795563,100.1018,0,1156,0.0392,9.011929,0.0392,43690,12.56894,1019.591,0.0008977814,0.039,1017.79,0,82.7436898921,11.53,97.66115,0.0392,0.0392,1.80078
2023-09-01T11:06:04Z,13.36887,11.93353,0.2278241,100.1018,0,1156,0.0392,9.793629,0.0588,43690,15.94769,1019.739,0.00113912,0.039,1017.938,0,82.6489121771,11.97,72.61366,0.0392,0.0393152941176,1.80078
2023-09-01T11:21:09Z,13.32145,12.59975,0.2765008,100.1125,0,1156,0.0392,11.26666,0.0392,43690,19.35505,1019.739,0.001382504,0.039,1017.938,0,78.7145489122,12.64,77.7737,0.0392,0.0392,1.80078
2023-09-01T11:36:08Z,13.28706,13.03509,0.3228033,100.102,0,1156,0.0392,12.71936,0.0392,43690,22.59623,1019.739,0.001614017,0.039,1017.938,0,78.5910014811,13.07,62.74214,0.0392,0.0392,1.80078
2023-09-01T11:51:07Z,13.26074,13.59439,0.3690072,100.1039,0,1156,0.0392,14.01391,0.0392,43690,25.8305,1019.739,0.001845036,0.039,1017.938,0,71.0550343357,13.63,69.89439,0.0392,0.0392,1.80078
2023-09-01T12:06:07Z,13.23284,14.54242,0.4148232,100.1696,0,1156,0.0392,15.23842,0.0392,43690,29.03762,1020.772,0.002074116,0.039,1018.971,0,69.450495376,14.37,90.42278,0.0392,0.0392,1.80078
2023-09-01T12:21:07Z,13.2073,14.66657,0.4571556,100.1147,0,1156,0.0392,16.29123,0.0392,43690,32.00089,1020.772,0.002285778,0.039,1018.971,0,67.5899619413,14.74,59.74789,0.0392,0.0392,1.80078
2023-09-01T12:36:07Z,13.18975,15.0663,0.5029248,100.1359,0,1156,0.0392,17.13619,1.96,43690,35.20474,1020.772,0.002514624,1.96,1018.971,0,75.1264461262,15.03,106.8493,0.0392,0.0508447058824,1.80078
2023-09-01T12:51:07Z,13.17585,15.86977,0.5453564,100.1522,0,1156,0.0392,17.89304,2.8812,43690,38.17494,1020.772,0.002726782,0.039,1018.971,0,61.8997373184,15.8,74.57207,0.0392,0.103995294118,1.80078
2023-09-01T13:06:07Z,13.15219,16.23354,0.5842492,100.1025,0,1156,0.0392,18.921,0.0392,43690,40.89744,1020.923,0.002921246,0.039,1019.122,0,20.6837103798,16.17,224.2339,0.0392,0.0392,1.80078
2023-09-01T13:21:07Z,13.1356,16.36859,0.6256716,100.1355,0,1156,0.0392,19.81115,0.5096,43690,43.79701,1020.923,0.003128358,0.039,1019.122,0,295.040843724,16.54,71.09624,0.0392,0.0443882352941,1.80078
2023-09-01T13:36:07Z,13.12229,16.73248,0.6637509,100.1201,0,1156,0.0392,20.47537,0.0588,43690,46.46256,1020.923,0.003318754,0.039,1019.122,0,51.6500630265,16.8,29.26617,0.0392,0.0393152941176,1.80078
2023-09-01T13:51:08Z,13.11479,17.36578,0.699852,100.1023,0,1156,0.0392,21.06955,4.0768,43690,48.98964,1020.923,0.00349926,0.039,1019.122,0,66.0365200865,17.54,210.7894,0.0392,0.0932729405882,1.80078
2023-09-01T14:06:08Z,13.09807,17.83951,0.7262482,100.1016,0,1156,0.0392,21.72473,3.9004,43690,50.83738,1020.569,0.003631241,0.039,1018.768,0,59.7179666064,17.87,97.95264,0.0392,0.0718282352941,1.80078
2023-09-01T14:21:10Z,13.09255,18.31361,0.7484218,100.1355,0,1156,0.0392,22.33473,0.7644,43690,52.38953,1020.569,0.003742109,0.039,1018.768,0,74.7642305666,18.31,275.6331,0.0392,0.0454258823529,1.80078
2023-09-01T14:36:09Z,13.0777,18.49897,0.7729138,100.0711,0,1156,0.0392,22.95376,2.352,43690,54.10396,1020.569,0.003864569,0.039,1018.768,0,56.5837640267,18.57,57.18172,0.0392,0.0530352941176,1.80078
2023-09-01T14:51:09Z,13.06608,18.80168,0.7883298,100.0678,0,1156,0.0392,23.58184,3.038,43690,55.18309,1020.569,0.003941649,0.039,1018.768,0,219.69715201,19.07,221.6048,0.0392,0.0575317647059,1.80078
2023-09-01T15:06:09Z,13.04952,18.90319,0.8099061,100.1016,0,1156,0.0392,24.04272,0.0392,43690,56.69342,1020.555,0.00404953,0.039,1018.754,0,106.487604042,18.9,75.66284,0.0392,0.0392,1.80078
2023-09-01T15:21:09Z,13.04952,19.61409,0.828121,100.1354,0,1156,0.0392,24.48101,1.078,43690,57.96848,1020.555,0.004140605,1.078,1018.754,0,192.936278095,19.65,244.1256,0.0392,0.0485388235294,1.80078
2023-09-01T15:36:09Z,13.04952,20.01601,0.8294921,100.1282,0,1156,0.0392,24.86509,4.3904,43690,58.06444,1020.555,0.00414746,4.39,1018.754,0,203.32786944,20.02,226.2993,0.0392,0.201303529412,1.80078
2023-09-01T15:51:10Z,13.04701,19.56878,0.8314174,100.1162,0,1156,0.0392,24.98257,0.0392,43690,58.19921,1020.555,0.004157086,0.039,1018.754,0,95.729178054,19.43,62.09504,0.0392,0.0390847058824,1.80078
2023-09-01T16:07:34Z,13.05238,19.67202,0.8405696,100.0852,0,1156,0.0392,24.74761,2.6068,43690,58.83988,1020.911,0.004202848,0.039,1019.11,0,56.1946818634,19.98,257.0144,0.0392,0.115330526316,1.80078
2023-09-01T16:22:34Z,13.05472,20.5272,0.8473134,100.1001,0,1156,0.0392,24.51039,0.0392,43690,59.31194,1020.911,0.004236567,0.039,1019.11,0,82.5600376588,20.66,217.2029,0.0392,0.0388541176471,1.80078
2023-09-01T16:37:33Z,13.05502,20.69733,0.8454185,100.1354,0,1156,0.0392,24.36354,0.0392,43690,59.17929,1020.911,0.004227092,0.039,1019.11,0,99.1975439008,20.77,205.2125,0.0392,0.0388541176471,1.80078
2023-09-01T16:52:33Z,13.05503,20.088,0.8434674,100.1015,0,1156,0.0392,24.33416,3.0576,43690,59.04272,1020.911,0.004217337,0.039,1019.11,0,81.1178579913,20.22,55.73762,0.0392,0.0569552941176,1.80078
2023-09-01T17:07:32Z,13.044,20.52808,0.8319061,100.1015,0,1156,7.1344,24.62786,6.86,43690,58.23342,1021.124,0.00415953,4.547,1019.323,0,193.53432466,20.8,173.6303,0.0392,0.804061176471,1.80078
2023-09-01T17:22:32Z,13.04378,19.60853,0.811669,100.0922,0,1156,4.7628,24.9532,7.565599,43690,56.81683,1021.124,0.004058345,6.35,1019.323,0,178.176976786,19.84,173.494,5.0764,4.73063292882,1.80078
2023-09-01T17:37:31Z,13.04115,18.31483,0.794808,100.1133,0,1156,6.174,25.19268,8.0164,43690,55.63656,1021.124,0.00397404,7.428001,1019.323,0,176.731164942,18.38,178.3019,6.1054,6.06919759412,1.80078
2023-09-01T17:52:31Z,13.04157,18.62071,0.770723,100.0817,0,1156,5.9192,25.19268,8.231999,43690,53.9506,1021.124,0.003853614,7.507001,1019.323,0,179.451962925,18.69,177.9934,6.6738,6.57257161765,1.80078
2023-09-01T18:07:32Z,13.04174,18.55366,0.7524182,100.1166,0,1156,5.9976,25.19268,7.4872,43690,52.66927,1020.858,0.003762091,6.782001,1019.057,0,179.196733169,18.66,183.6906,5.929,5.73219288235,1.80078
2023-09-01T18:22:32Z,13.04171,18.45293,0.7109919,100.118,0,1156,5.1156,25.25142,6.5856,43690,49.76943,1020.858,0.003554959,6.527,1019.057,0,180.304417289,18.59,181.266,5.4096,5.34538117059,1.80078
2023-09-01T18:37:33Z,13.0418,18.2145,0.6801629,100.0816,0,1156,4.41,25.22205,7.0364,43690,47.6114,1020.858,0.003400814,6.586,1019.057,0,179.544390872,18.32,177.2963,5.5076,5.43554116412,1.80078
2023-09-01T18:52:33Z,13.04178,18.21551,0.644517,100.1171,0,1156,4.4688,25.16331,6.3308,43690,45.11619,1020.858,0.003222585,5.076,1019.057,0,177.217798711,18.35,172.7336,4.9196,4.86518117647,1.80078
2023-09-01T19:07:33Z,13.0418,18.31434,0.6002004,100.1463,0,1156,5.1156,25.07294,5.9192,43690,42.01403,1020.448,0.003001002,5.762,1018.647,0,177.462142163,18.45,176.1377,4.5766,4.22748941176,1.80078
2023-09-01T19:22:34Z,13.04192,18.38664,0.5582924,100.0866,0,1156,5.5272,24.92383,6.174,43690,39.08047,1020.448,0.002791462,5.743,1018.647,0,178.088802482,18.39,177.7137,4.5668,4.21757411765,1.80078
2023-09-01T19:37:34Z,13.05459,18.56209,0.5091726,100.0972,0,1156,5.3312,24.56913,6.174,43690,35.64208,1020.448,0.002545863,5.331,1018.647,0,179.608344732,18.66,175.4012,4.655,4.53659294118,1.80078
2023-09-01T19:52:35Z,13.06605,18.32762,0.4677486,100.1014,0,1156,3.3908,24.10146,6.958,43690,32.7424,1020.448,0.002338743,5.939,1018.647,0,182.832753725,18.4,195.8146,4.9882,4.82840235294,1.80078
2023-09-01T20:07:36Z,13.06606,18.32767,0.2982563,100.1015,0,1156,4.5668,23.52309,6.8208,43690,20.87794,1020.474,0.001491282,5.762,1018.673,0,185.901651058,18.29,186.9939,5.0176,4.85653411765,1.80078
2023-09-01T20:22:36Z,13.0826,18.05686,0.2259939,100.0677,0,1156,3.4496,22.89728,6.0172,43690,15.81957,1020.474,0.00112997,4.939,1018.673,0,187.536278913,18.12,181.61,4.312,3.79905647059,1.80078
2023-09-01T20:37:37Z,13.09989,18.06391,0.2481654,100.0798,0,1156,2.5284,22.08395,4.508,43690,17.37157,1020.474,0.001240827,3.41,1018.673,0,192.527279947,18.2,196.2232,1.7052,1.82648940941,1.80078
2023-09-01T20:52:38Z,13.1145,17.5682,0.2674777,100.1009,0,1156,3.8416,21.17799,4.5864,43690,18.72344,1020.474,0.001337388,4.449,1018.673,0,194.612912959,17.7,198.4044,1.5288,1.80077882353,1.80078
2023-09-01T21:07:39Z,13.13115,17.29766,0.1156797,100.1016,0,1156,3.9592,20.31496,4.9196,43690,8.097582,1020.324,0.0005783987,4.332,1018.523,0,197.212368618,17.47,198.4297,3.2144,2.46464235176,1.80078
2023-09-01T21:22:39Z,13.15052,17.00423,0.09351303,100.1215,0,1156,0.0392,19.57393,3.9984,43690,6.545912,1020.324,0.0004675651,0.294,1018.523,0,194.187790078,17.21,193.5393,0.1176,0.926503527059,1.80078
2023-09-01T21:37:38Z,13.16864,16.74097,0.08580074,100.1012,0,1156,4.018,18.86904,4.5276,43690,6.006052,1020.324,0.0004290037,4.155,1018.523,0,198.692899036,16.91,199.795,0.0392,0.382084705882,1.80078
2023-09-01T21:52:38Z,13.17973,16.33467,0.0694128,100.1355,0,1156,4.4688,18.22515,5.0176,43690,4.858896,1020.324,0.000347064,4.547,1018.523,0,199.139583393,16.4,196.6449,3.9396,3.15467764529,1.80078
2023-09-01T22:07:38Z,13.19131,16.13244,0.04965632,100.0357,0,1156,1.5484,17.64,4.6256,43690,3.475942,1020.175,0.0002482816,4.116,1018.374,0,201.068939249,16.06,194.7965,0.3332,1.40635764471,1.80078
2023-09-01T22:22:38Z,13.20287,15.66264,0.03182397,100.0776,0,1156,0.0392,17.06163,4.8608,43690,2.227678,1020.175,0.0001591199,1.254,1018.374,0,196.773007021,15.73,200.3204,1.6758,2.00381176412,1.80078
2023-09-01T22:37:38Z,13.22267,15.23497,0.01591224,100.0668,0,1156,0.0392,16.46293,2.646,43690,1.113857,1020.175,7.956122e-05,0.039,1018.374,0,211.31844378,15.37,213.046,0.0392,0.0676776470588,1.80078
2023-09-01T22:52:38Z,13.23386,15.06608,0.005304083,100.1017,0,1156,2.0188,15.84842,5.3312,43690,0.3712858,1020.175,2.652042e-05,4.704,1018.374,0,201.785620487,15.17,195.1958,0.0392,1.06900705882,1.80078
2023-09-01T23:07:39Z,13.24623,14.63147,0.0009644582,100.1464,0,1156,4.1944,15.23842,5.1352,43690,0.06751207,1020.92,4.822291e-06,5.135,1019.119,0,194.524704383,14.8,189.2736,0.9897999,1.96380470412,1.80078
2023-09-01T23:22:40Z,13.25815,14.73557,0.0,100.117,0,1156,0.0588,14.80465,5.292,43690,0.0,1020.92,0.0,3.704,1019.119,0,188.090496541,14.8,188.9692,3.9396,3.30997882294,1.80078
2023-09-01T23:37:41Z,13.26563,14.40505,0.0,100.0646,0,1156,0.0392,14.39572,1.274,43690,0.0,1020.92,0.0,0.118,1019.119,0,184.273448104,14.54,178.7458,0.0392,0.0589152941176,1.80078
2023-09-01T23:52:42Z,13.27147,14.54234,0.0,100.1355,0,1156,0.0392,14.06135,3.724,43690,0.0,1020.92,0.0,0.039,1019.119,0,180.674080215,14.64,185.1534,0.0392,0.242348234706,1.80078
2023-09-02T00:07:44Z,13.28252,14.13559,0.0,100.1356,0,1156,2.45,13.72924,3.6652,43690,0.0,1020.852,0.0,1.431,1019.051,0,182.661030749,14.2,186.1163,0.0392,0.115639999412,1.80078
2023-09-02T00:22:40Z,13.28252,14.13559,0.0,100.0678,0,1156,0.0392,13.46943,3.822,43690,0.0,1020.852,0.0,0.039,1019.051,0,186.500184164,14.27,210.3525,0.0392,0.159583431361,1.80078
2023-09-02T00:37:42Z,13.28804,13.69492,0.0,100.1017,0,1156,0.0392,13.23446,2.5872,43690,0.0,1020.852,0.0,2.587,1019.051,0,195.183620864,13.83,188.5231,0.0392,0.0983458823529,1.80078
2023-09-02T00:52:43Z,13.29356,13.69492,0.0,100.0678,0,1156,0.0392,12.92947,0.0392,43690,0.0,1020.852,0.0,0.039,1019.051,0,198.944135335,13.8,195.1417,0.0392,0.0392,1.80078
2023-09-02T01:07:44Z,13.29908,13.72881,0.0,100.1356,0,1156,0.0392,12.71936,0.0392,43690,0.0,1021.34,0.0,0.039,1019.539,0,197.5285446,13.83,191.9648,0.0392,0.0392,1.80078
2023-09-02T01:22:45Z,13.29908,14.20339,0.0,100.1017,0,1156,2.0776,12.65158,6.174,43690,0.0,1021.34,0.0,5.821,1019.539,0,197.039398842,14.24,192.9515,4.1748,3.44395058824,1.80078
2023-09-02T01:37:45Z,13.29356,14.33898,0.0,100.0678,0,1156,5.9388,12.7668,6.4484,43690,0.0,1021.34,0.0,5.743,1019.539,0,196.471420182,14.41,190.2319,5.5076,5.17670588235,1.80078
2023-09-02T01:52:45Z,13.28252,14.27119,0.0,100.0678,0,1156,6.5856,12.90687,6.7228,43690,0.0,1021.34,0.0,6.723001,1019.539,0,194.517938027,14.41,191.0742,5.4488,5.42009175882,1.80078
2023-09-02T02:07:45Z,13.28252,14.40678,0.0,100.1017,0,1156,5.096,13.0718,7.2912,43690,0.0,1021.096,0.0,6.801,1019.295,0,194.518655988,14.47,190.9539,5.9878,5.93003762353,1.80078
2023-09-02T02:22:45Z,13.28252,14.20339,0.0,100.1356,0,1156,6.389599,13.23446,7.252,43690,0.0,1021.096,0.0,7.095,1019.295,0,193.052457646,14.24,192.2536,6.3504,6.17572932353,1.80078
2023-09-02T02:37:44Z,13.277,14.0339,0.0,100.1017,0,1156,5.5076,13.32936,7.016799,43690,0.0,1021.096,0.0,6.154,1019.295,0,194.277520751,14.14,195.262,6.0368,5.85913173529,1.80078
2023-09-02T02:52:43Z,13.28252,14.0678,0.0,100.1017,0,1156,0.098,13.3045,6.4484,43690,0.0,1021.096,0.0,6.056,1019.295,0,194.872900318,14.14,194.8047,5.7624,5.53607764706,1.80078
2023-09-02T03:07:42Z,13.28252,13.8983,0.0,100.1356,0,1156,6.3308,13.28191,6.2132,43690,0.0,1020.526,0.0,5.782,1018.725,0,193.581690854,14.0,192.6627,5.3704,5.17947294118,1.80078
2023-09-02T03:22:47Z,13.28252,14.1017,0.0,100.1017,0,1156,6.781599,13.25932,8.0164,43690,0.0,1020.526,0.0,8.04,1018.725,0,192.098879537,14.14,194.5641,6.5856,6.57643027485,1.80078
2023-09-02T03:37:46Z,13.28252,14.30508,0.0,100.1356,0,1156,7.056,13.28191,7.9772,43690,0.0,1020.526,0.0,7.428001,1018.725,0,194.584457268,14.41,192.4702,6.8208,6.74897161765,1.80078
2023-09-02T03:52:45Z,13.28252,14.33898,0.0,100.1356,0,1156,7.35,13.3045,7.7224,43690,0.0,1020.526,0.0,7.644001,1018.725,0,194.92444052,14.41,190.4003,6.7619995,6.60093401176,1.80078
2023-09-02T04:07:44Z,13.277,14.50848,0.0,100.1017,0,1156,7.0364,13.32936,7.8792,43690,0.0,1020.282,0.0,7.644001,1018.481,0,194.226246945,14.51,192.8312,6.8012,6.72637398824,1.80078
2023-09-02T04:22:43Z,13.28252,14.47458,0.0,100.1356,0,1156,5.5272,13.3768,7.6244,43690,0.0,1020.282,0.0,7.624001,1018.481,0,192.311231232,14.54,191.8444,6.6248,6.54847519412,1.80078
2023-09-02T04:37:48Z,13.28252,14.50848,0.0,100.1017,0,1156,6.4288,13.3768,7.6832,43690,0.0,1020.282,0.0,7.448001,1018.481,0,191.997495656,14.51,194.0586,6.8012,6.71374491228,1.80078
2023-09-02T04:52:46Z,13.28252,14.30508,0.0,100.1356,0,1156,6.3504,13.3994,7.7224,43690,0.0,1020.282,0.0,6.86,1018.481,0,194.993003886,14.47,192.6386,6.5464,6.49405636471,1.80078
2023-09-02T05:07:45Z,13.28252,14.33898,0.0,100.1017,0,1156,6.5856,13.3994,7.663599,43690,0.0,1020.282,0.0,7.624001,1018.481,0,195.437042158,14.44,197.7892,6.517,6.40216695882,1.80078
2023-09-02T05:22:49Z,13.277,14.33898,0.0,100.1356,0,1156,6.5072,13.42424,7.9772,43690,0.0,1020.282,0.0,7.703001,1018.481,0,195.037277865,14.47,190.5448,6.6052,6.44725364327,1.80078
2023-09-02T05:37:47Z,13.28252,14.40678,0.0,100.1017,0,1156,6.4092,13.46943,7.84,43690,0.0,1020.282,0.0,7.546001,1018.481,0,194.212533933,14.47,190.4003,6.468,6.38106814706,1.80078
2023-09-02T05:52:46Z,13.277,14.37288,0.0,100.1017,0,1156,5.8408,13.49428,7.369599,43690,0.0,1020.282,0.0,7.115,1018.481,0,193.45843414,14.54,192.3258,6.487599,6.37760931176,1.80078
2023-09-02T06:07:46Z,13.277,14.50848,0.0,100.1017,0,1156,6.566,13.56432,7.4284,43690,0.0,1020.608,0.0,7.095,1018.807,0,192.358410852,14.47,197.8854,6.3406,6.17192461176,1.80078
2023-09-02T06:22:46Z,13.277,14.30508,0.0,100.1017,0,1156,5.5076,13.56432,7.0952,43690,0.0,1020.608,0.0,6.252,1018.807,0,194.290584101,14.41,190.2319,5.6252,5.50264234647,1.80078
2023-09-02T06:37:46Z,13.277,14.16949,0.0,100.0678,0,1156,5.3116,13.51687,6.389599,43690,0.0,1020.608,0.0,5.743,1018.807,0,190.76747388,14.27,188.8841,5.292,5.11617646471,1.80078
2023-09-02T06:52:47Z,13.28252,14.20339,0.0,100.1017,0,1156,5.3704,13.46943,6.1936,43690,0.0,1020.608,0.0,6.194,1018.807,0,188.853855397,14.2,185.8997,4.8412,4.72844235294,1.80078
2023-09-02T07:07:47Z,13.277,14.16949,0.0,100.1017,0,1156,4.6844,13.3994,5.8016,43690,0.0,1020.364,0.0,5.684,1018.563,0,188.200382703,14.17,199.0166,4.9392,4.75576705882,1.80078
2023-09-02T07:22:52Z,13.28252,14.0678,0.0,100.1017,0,1156,4.998,13.35195,5.8604,43690,0.0,1020.364,0.0,5.233,1018.563,0,187.895047283,14.14,180.6288,4.8608,4.78068070175,1.80078
2023-09-02T07:37:51Z,13.28252,14.16949,0.0,100.1017,0,1156,3.5672,13.3045,5.9192,43690,0.0,1020.364,0.0,5.527,1018.563,0,186.107720017,14.2,182.2895,4.8706,4.85745647059,1.80078
2023-09-02T07:52:50Z,13.28252,14.13559,0.0,100.1017,0,1156,4.1552,13.3045,5.7624,43690,0.0,1020.364,0.0,5.37,1018.563,0,188.685365189,14.2,183.18,4.8216,4.71529882353,1.80078